CW9307 Weather Reports


Display with metric or nautical units.
time (UTC)temp
F
wind
direction
speed
MPH
gust
MPH
rain 1hr
in
rain 24hr
in
rain mn
in
humidity
%
barometer
mb
20260505021529 53 311 2.0 4.0 0.00 0.00 0.00 63 1009.2
20260505020028 53 297 2.0 4.0 0.00 0.00 0.00 63 1009.4
20260505014528 53 321 1.0 5.0 0.00 0.00 0.00 62 1009.2
20260505013030 54 299 3.0 12.0 0.00 0.00 0.00 60 1009.1
20260505011547 55 313 5.0 15.0 0.00 0.00 0.00 56 1008.9
20260505010026 57 352 4.0 6.0 0.00 0.00 0.00 56 1008.8
20260505004528 57 333 3.0 9.0 0.00 0.00 0.00 57 1008.8
20260505003028 58 316 4.0 6.0 0.00 0.00 0.00 56 1008.4
20260505001528 58 14 3.0 7.0 0.00 0.00 0.00 56 1008.1
20260505000037 57 300 3.0 6.0 0.00 0.00 0.00 58 1008.2
20260504234530 57 337 4.0 10.0 0.00 0.00 0.00 54 1008.1
20260504233028 59 325 6.0 12.0 0.00 0.00 0.00 47 1008.1
20260504231528 61 348 5.0 14.0 0.00 0.00 0.00 46 1008.1
20260504230030 61 277 11.0 15.0 0.00 0.00 0.00 42 1008.1
20260504224533 61 263 9.0 12.0 0.00 0.00 0.00 41 1008.1
20260504223030 62 328 3.0 5.0 0.00 0.00 0.00 38 1007.6
20260504221530 62 10 4.0 12.0 0.00 0.00 0.00 40 1007.2
20260504220028 63 21 8.0 17.0 0.00 0.00 0.00 40 1006.9
20260504214530 63 352 12.0 23.0 0.00 0.00 0.00 40 1007.0
20260504213033 65 346 12.0 21.0 0.00 0.00 0.00 41 1007.5
20260504211528 62 352 10.0 17.0 0.00 0.00 0.00 45 1007.4
20260504210028 60 327 7.0 18.0 0.00 0.00 0.00 47 1007.5
20260504204528 64 334 10.0 17.0 0.00 0.00 0.00 35 1007.5
20260504203028 68 22 7.0 13.0 0.00 0.00 0.00 25 1007.3
20260504201527 68 203 2.0 11.0 0.00 0.00 0.00 18 1006.7
20260504200030 72 320 8.0 16.0 0.00 0.00 0.00 20 1006.3
20260504194531 75 9 10.0 17.0 0.00 0.00 0.00 19 1006.5
20260504193028 73 309 11.0 18.0 0.00 0.00 0.00 19 1006.3
20260504191530 72 300 9.0 18.0 0.00 0.00 0.00 18 1006.1
20260504190030 73 330 8.0 16.0 0.00 0.00 0.00 16 1006.2
20260504184528 74 274 8.0 15.0 0.00 0.00 0.00 18 1006.4
20260504183029 73 304 12.0 18.0 0.00 0.00 0.00 18 1006.5
20260504181530 72 287 13.0 19.0 0.00 0.00 0.00 19 1006.7
20260504180029 72 272 15.0 20.0 0.00 0.00 0.00 20 1007.0
20260504174527 72 279 14.0 23.0 0.00 0.00 0.00 23 1007.1
20260504173028 70 275 17.0 23.0 0.00 0.00 0.00 23 1007.4
20260504171543 69 265 13.0 20.0 0.00 0.00 0.00 25 1007.8
20260504081528 49 227 1.0 2.0 0.00 0.00 0.00 42 1009.2
20260504044531 57 298 4.0 8.0 0.00 0.00 0.00 33 1009.8
20260504043042 61 265 5.0 9.0 0.00 0.00 0.00 29 1009.4
20260504041535 62 243 7.0 10.0 0.00 0.00 0.00 28 1009.6
20260504040030 63 230 6.0 10.0 0.00 0.00 0.00 27 1009.8
20260504034530 63 225 6.0 10.0 0.00 0.00 0.00 26 1009.8
20260504033031 63 234 6.0 9.0 0.00 0.00 0.00 25 1009.8
20260504031530 64 242 4.0 7.0 0.00 0.00 0.00 25 1009.6
20260504030033 64 218 4.0 7.0 0.00 0.00 0.00 24 1009.5
20260504024529 63 215 4.0 6.0 0.00 0.00 0.00 25 1009.4
20260504023031 65 232 5.0 8.0 0.00 0.00 0.00 24 1009.4